EWG86GR LIMC-EDDS

Flight info

Callsign EWG86GR
Flight time 0h 35m
Altitude 24000
Route SRN6SXPEPAG2Q/35R PEPAG DCT ABESI N851 UTAVO DCT SOPER N851 ROMIR T125 REUTL REUTL1W
Aircraft A319/M-SDE3FGHIRWY/LB1

Departure

Time 2026-05-05 21:08
Airport Milan Malpensa International Airport (LIMC)

Arrival

Time 2026-05-05 21:44
Airport Stuttgart Airport (EDDS)
Time Latitude Longitude Altitude Speed Heading
2026-05-05 20:15 45.62456 8.71753 741 ft 0 kts 259°
2026-05-05 20:33 45.62460 8.71781 741 ft 4 kts 257°
2026-05-05 20:34 45.62467 8.71818 739 ft 4 kts 251°
2026-05-05 20:34 45.62477 8.71853 741 ft 4 kts 234°
2026-05-05 20:34 45.62494 8.71874 741 ft 3 kts 175°
2026-05-05 20:34 45.62498 8.71874 739 ft 0 kts 169°
2026-05-05 20:37 45.62489 8.71876 740 ft 3 kts 170°
2026-05-05 20:38 45.62449 8.71886 741 ft 8 kts 168°
2026-05-05 20:38 45.62397 8.71901 741 ft 8 kts 169°
2026-05-05 20:38 45.62350 8.71933 741 ft 8 kts 126°
2026-05-05 20:38 45.62352 8.72022 741 ft 10 kts 79°
2026-05-05 20:39 45.62330 8.72111 742 ft 11 kts 150°
2026-05-05 20:39 45.62237 8.72145 742 ft 16 kts 169°
2026-05-05 20:39 45.62128 8.72174 742 ft 16 kts 169°
2026-05-05 20:39 45.62017 8.72204 740 ft 16 kts 169°
2026-05-05 20:40 45.61904 8.72237 742 ft 17 kts 168°
2026-05-05 20:40 45.61789 8.72269 742 ft 16 kts 169°
2026-05-05 20:40 45.61682 8.72298 742 ft 16 kts 169°
2026-05-05 20:40 45.61572 8.72329 742 ft 16 kts 169°
2026-05-05 20:41 45.61459 8.72359 742 ft 17 kts 171°
2026-05-05 20:41 45.61386 8.72264 740 ft 17 kts 259°
2026-05-05 20:41 45.61308 8.72200 742 ft 15 kts 168°
2026-05-05 20:41 45.61205 8.72231 742 ft 15 kts 169°
2026-05-05 20:42 45.61091 8.72261 742 ft 19 kts 171°
2026-05-05 20:42 45.60954 8.72297 742 ft 21 kts 167°
2026-05-05 20:42 45.60810 8.72337 742 ft 21 kts 169°
2026-05-05 20:42 45.60668 8.72398 742 ft 21 kts 142°
2026-05-05 20:43 45.60630 8.72594 742 ft 21 kts 97°
2026-05-05 20:43 45.60612 8.72807 742 ft 22 kts 95°
2026-05-05 20:43 45.60592 8.73027 742 ft 23 kts 98°
2026-05-05 20:43 45.60596 8.73212 742 ft 12 kts 68°
2026-05-05 20:44 45.60648 8.73289 742 ft 11 kts 32°
2026-05-05 20:44 45.60726 8.73331 742 ft 14 kts 21°
2026-05-05 20:44 45.60829 8.73388 742 ft 18 kts 21°
2026-05-05 20:44 45.60935 8.73399 742 ft 13 kts 349°
2026-05-05 20:45 45.61090 8.73358 742 ft 0 kts 349°
2026-05-05 20:47 45.61100 8.73355 742 ft 4 kts 349°
2026-05-05 20:48 45.61151 8.73342 742 ft 10 kts 349°
2026-05-05 20:48 45.61236 8.73318 742 ft 15 kts 349°
2026-05-05 20:48 45.61349 8.73285 742 ft 19 kts 348°
2026-05-05 20:48 45.61490 8.73246 742 ft 19 kts 349°
2026-05-05 20:49 45.61582 8.73228 742 ft 14 kts
2026-05-05 20:49 45.61628 8.73335 742 ft 8 kts 80°
2026-05-05 20:49 45.61632 8.73374 742 ft 2 kts 80°
2026-05-05 20:49 45.61635 8.73407 741 ft 5 kts 91°
2026-05-05 20:50 45.61616 8.73470 742 ft 9 kts 121°
2026-05-05 20:50 45.61604 8.73499 742 ft 0 kts 120°
2026-05-05 21:02 45.61600 8.73510 741 ft 3 kts 118°
2026-05-05 21:02 45.61588 8.73551 742 ft 6 kts 107°
2026-05-05 21:03 45.61586 8.73593 742 ft 0 kts 86°
2026-05-05 21:07 45.61589 8.73623 742 ft 7 kts 83°
2026-05-05 21:07 45.61615 8.73720 742 ft 14 kts 44°
2026-05-05 21:07 45.61689 8.73722 741 ft 3 kts 348°
2026-05-05 21:07 45.61799 8.73690 742 ft 35 kts 348°
2026-05-05 21:08 45.62303 8.73552 742 ft 110 kts 349°
2026-05-05 21:08 45.63263 8.73284 879 ft 157 kts 348°
2026-05-05 21:08 45.64347 8.73105 1622 ft 162 kts
2026-05-05 21:08 45.65327 8.73872 2369 ft 164 kts 50°
2026-05-05 21:09 45.65838 8.75307 3129 ft 162 kts 72°
2026-05-05 21:09 45.66479 8.76681 3714 ft 180 kts 47°
2026-05-05 21:09 45.67526 8.77943 3946 ft 209 kts 39°
2026-05-05 21:09 45.68708 8.79214 4005 ft 215 kts 38°
2026-05-05 21:10 45.69907 8.80500 4008 ft 215 kts 39°
2026-05-05 21:10 45.71060 8.81857 4002 ft 214 kts 47°
2026-05-05 21:10 45.72019 8.83502 4037 ft 229 kts 60°
2026-05-05 21:10 45.72538 8.85835 4494 ft 257 kts 81°
2026-05-05 21:11 45.72937 8.88366 5216 ft 272 kts 77°
2026-05-05 21:11 45.73420 8.90984 5456 ft 272 kts 76°
2026-05-05 21:11 45.73935 8.93629 6133 ft 279 kts 76°
2026-05-05 21:11 45.74460 8.96312 7366 ft 279 kts 76°
2026-05-05 21:12 45.74985 8.99041 8048 ft 286 kts 76°
2026-05-05 21:12 45.75504 9.01805 8492 ft 290 kts 77°
2026-05-05 21:12 45.76019 9.04600 8748 ft 290 kts 77°
2026-05-05 21:12 45.76536 9.07435 9434 ft 297 kts 77°
2026-05-05 21:13 45.77241 9.10185 10351 ft 307 kts 62°
2026-05-05 21:13 45.78700 9.12538 10868 ft 329 kts 34°
2026-05-05 21:13 45.80792 9.13773 11555 ft 338 kts
2026-05-05 21:13 45.83095 9.13629 12404 ft 340 kts 344°
2026-05-05 21:14 45.85414 9.12724 12843 ft 355 kts 341°
2026-05-05 21:14 45.87861 9.11686 12980 ft 380 kts 340°
2026-05-05 21:14 45.90474 9.10542 13007 ft 405 kts 340°
2026-05-05 21:14 45.93204 9.09341 13002 ft 413 kts 341°
2026-05-05 21:15 45.95979 9.08136 13536 ft 419 kts 341°
2026-05-05 21:15 45.98776 9.07073 14145 ft 425 kts 348°
2026-05-05 21:15 46.01740 9.06555 14701 ft 431 kts 351°
2026-05-05 21:15 46.04734 9.06080 15245 ft 436 kts 351°
2026-05-05 21:16 46.07764 9.05599 15803 ft 440 kts 351°
2026-05-05 21:16 46.10821 9.05112 16323 ft 444 kts 351°
2026-05-05 21:16 46.13907 9.04613 16873 ft 448 kts 351°
2026-05-05 21:16 46.17024 9.04108 17407 ft 453 kts 351°
2026-05-05 21:17 46.20132 9.03646 17931 ft 457 kts 352°
2026-05-05 21:17 46.23319 9.03221 18418 ft 461 kts 352°
2026-05-05 21:17 46.26527 9.02816 18865 ft 465 kts 352°
2026-05-05 21:17 46.29765 9.02412 19347 ft 469 kts 352°
2026-05-05 21:18 46.33030 9.01997 19800 ft 472 kts 352°
2026-05-05 21:18 46.36312 9.01566 20231 ft 476 kts 352°
2026-05-05 21:18 46.39616 9.01121 20536 ft 479 kts 352°
2026-05-05 21:18 46.42951 9.00669 20927 ft 482 kts 352°
2026-05-05 21:19 46.46330 9.00647 21301 ft 489 kts
2026-05-05 21:19 46.49737 9.00963 21662 ft 493 kts
2026-05-05 21:19 46.53164 9.01449 22052 ft 496 kts
2026-05-05 21:19 46.56605 9.02089 22411 ft 500 kts
2026-05-05 21:20 46.60014 9.02807 22746 ft 503 kts
2026-05-05 21:20 46.63484 9.03561 23069 ft 506 kts
2026-05-05 21:20 46.66971 9.04303 23400 ft 508 kts
2026-05-05 21:20 46.70477 9.05011 23648 ft 509 kts
2026-05-05 21:21 46.74003 9.05684 23863 ft 511 kts
2026-05-05 21:21 46.77532 9.06330 23939 ft 512 kts
2026-05-05 21:21 46.81062 9.06969 23939 ft 512 kts
2026-05-05 21:21 46.84602 9.07616 23940 ft 511 kts
2026-05-05 21:22 46.88129 9.08272 23926 ft 511 kts
2026-05-05 21:22 46.91650 9.08940 23931 ft 511 kts
2026-05-05 21:22 46.95175 9.09609 23922 ft 511 kts
2026-05-05 21:22 46.98698 9.10273 23924 ft 511 kts
2026-05-05 21:23 47.02229 9.10935 23925 ft 511 kts
2026-05-05 21:23 47.05708 9.11586 23916 ft 510 kts
2026-05-05 21:23 47.09218 9.12239 23913 ft 510 kts
2026-05-05 21:23 47.12736 9.12891 23911 ft 509 kts
2026-05-05 21:24 47.16252 9.13546 23906 ft 509 kts
2026-05-05 21:24 47.19716 9.14198 23899 ft 508 kts
2026-05-05 21:24 47.23228 9.14865 23904 ft 509 kts
2026-05-05 21:24 47.26737 9.15534 23906 ft 508 kts
2026-05-05 21:25 47.30249 9.16201 23911 ft 508 kts
2026-05-05 21:25 47.33755 9.16866 23912 ft 508 kts
2026-05-05 21:25 47.37231 9.17527 23913 ft 508 kts
2026-05-05 21:25 47.40733 9.18195 23913 ft 507 kts
2026-05-05 21:26 47.44239 9.18866 23933 ft 507 kts
2026-05-05 21:26 47.47709 9.19530 23902 ft 500 kts
2026-05-05 21:26 47.51112 9.20180 23905 ft 499 kts
2026-05-05 21:26 47.54550 9.20838 23903 ft 498 kts
2026-05-05 21:27 47.57752 9.21452 23909 ft 498 kts
2026-05-05 21:27 47.61192 9.22109 23907 ft 498 kts
2026-05-05 21:27 47.64412 9.22723 23910 ft 498 kts
2026-05-05 21:27 47.67933 9.23394 23906 ft 498 kts
2026-05-05 21:28 47.71370 9.24053 23904 ft 498 kts
2026-05-05 21:28 47.74809 9.24716 23757 ft 499 kts
2026-05-05 21:28 47.78237 9.25381 22524 ft 496 kts
2026-05-05 21:28 47.81582 9.26031 21670 ft 484 kts
2026-05-05 21:29 47.84886 9.26673 20682 ft 474 kts
2026-05-05 21:29 47.88125 9.27300 19686 ft 466 kts
2026-05-05 21:29 47.91318 9.27918 18705 ft 459 kts
2026-05-05 21:29 47.94390 9.28508 17690 ft 452 kts
2026-05-05 21:30 47.97463 9.29099 17101 ft 436 kts
2026-05-05 21:30 48.00416 9.29670 16486 ft 423 kts
2026-05-05 21:30 48.03311 9.30234 15745 ft 416 kts
2026-05-05 21:30 48.06158 9.30792 14978 ft 410 kts
2026-05-05 21:31 48.08977 9.31346 14201 ft 405 kts
2026-05-05 21:31 48.11756 9.31892 13386 ft 401 kts
2026-05-05 21:31 48.14505 9.32430 12501 ft 396 kts
2026-05-05 21:31 48.17221 9.32959 11716 ft 390 kts
2026-05-05 21:32 48.19837 9.33431 11567 ft 367 kts
2026-05-05 21:32 48.22306 9.33840 11439 ft 347 kts
2026-05-05 21:32 48.24646 9.34209 11313 ft 331 kts
2026-05-05 21:32 48.26706 9.34527 11196 ft 318 kts
2026-05-05 21:33 48.28958 9.34874 10940 ft 310 kts
2026-05-05 21:33 48.31094 9.35207 10598 ft 307 kts
2026-05-05 21:33 48.33215 9.35542 10253 ft 305 kts
2026-05-05 21:33 48.35327 9.35878 9990 ft 305 kts
2026-05-05 21:34 48.37417 9.36547 9714 ft 309 kts 15°
2026-05-05 21:34 48.39402 9.37799 9426 ft 310 kts 21°
2026-05-05 21:34 48.41360 9.39130 9135 ft 308 kts 21°
2026-05-05 21:34 48.43309 9.40454 8848 ft 307 kts 21°
2026-05-05 21:35 48.45257 9.41775 8557 ft 305 kts 21°
2026-05-05 21:35 48.47183 9.43085 8273 ft 304 kts 21°
2026-05-05 21:35 48.49107 9.44394 7999 ft 302 kts 21°
2026-05-05 21:35 48.51017 9.45699 7768 ft 301 kts 21°
2026-05-05 21:36 48.52920 9.47000 7538 ft 300 kts 21°
2026-05-05 21:36 48.54796 9.48282 7315 ft 299 kts 21°
2026-05-05 21:36 48.56683 9.49569 7094 ft 298 kts 21°
2026-05-05 21:36 48.58570 9.50858 6864 ft 297 kts 20°
2026-05-05 21:37 48.60456 9.52098 6592 ft 294 kts 15°
2026-05-05 21:37 48.62432 9.52736 6280 ft 288 kts
2026-05-05 21:37 48.64399 9.53203 5883 ft 287 kts
2026-05-05 21:37 48.66375 9.53662 5475 ft 287 kts
2026-05-05 21:38 48.68350 9.54111 5075 ft 286 kts
2026-05-05 21:38 48.70317 9.54499 4665 ft 282 kts 358°
2026-05-05 21:38 48.72170 9.53923 4386 ft 264 kts 328°
2026-05-05 21:38 48.73454 9.52147 4263 ft 241 kts 297°
2026-05-05 21:39 48.73960 9.49903 4122 ft 217 kts 272°
2026-05-05 21:39 48.73790 9.47742 4022 ft 200 kts 253°
2026-05-05 21:39 48.73420 9.45783 3997 ft 185 kts 253°
2026-05-05 21:39 48.73086 9.43989 3827 ft 171 kts 253°
2026-05-05 21:40 48.72776 9.42324 3607 ft 162 kts 252°
2026-05-05 21:40 48.72466 9.40686 3426 ft 163 kts 252°
2026-05-05 21:40 48.72146 9.39021 3246 ft 166 kts 252°
2026-05-05 21:40 48.71823 9.37340 2984 ft 164 kts 252°
2026-05-05 21:41 48.71533 9.35736 2714 ft 151 kts 252°
2026-05-05 21:41 48.71263 9.34306 2543 ft 132 kts 251°
2026-05-05 21:41 48.71016 9.33015 2398 ft 125 kts 251°
2026-05-05 21:41 48.70785 9.31775 2238 ft 124 kts 251°
2026-05-05 21:42 48.70546 9.30495 2059 ft 129 kts 252°
2026-05-05 21:42 48.70300 9.29174 1873 ft 131 kts 252°
2026-05-05 21:42 48.70052 9.27842 1698 ft 131 kts 252°
2026-05-05 21:42 48.69805 9.26522 1509 ft 130 kts 252°
2026-05-05 21:43 48.69560 9.25221 1357 ft 128 kts 252°
2026-05-05 21:43 48.69314 9.23933 1205 ft 126 kts 252°
2026-05-05 21:43 48.69107 9.22821 1221 ft 90 kts 254°
2026-05-05 21:43 48.68959 9.22045 1252 ft 65 kts 254°
2026-05-05 21:44 48.68836 9.21400 1258 ft 67 kts 254°
2026-05-05 21:44 48.68736 9.20850 1266 ft 36 kts 255°
2026-05-05 21:44 48.68680 9.20516 1273 ft 30 kts 256°
2026-05-05 21:44 48.68702 9.20193 1283 ft 29 kts 286°
2026-05-05 21:45 48.68756 9.20008 1292 ft 12 kts 312°
2026-05-05 21:45 48.68814 9.19925 1297 ft 11 kts 317°
2026-05-05 21:45 48.68875 9.19874 1302 ft 9 kts 318°
2026-05-05 21:45 48.68882 9.19789 1305 ft 8 kts 261°
2026-05-05 21:46 48.68867 9.19701 1308 ft 9 kts 255°
2026-05-05 21:46 48.68848 9.19599 1310 ft 11 kts 253°
2026-05-05 21:46 48.68833 9.19519 1311 ft 13 kts 256°
2026-05-05 21:46 48.68818 9.19394 1314 ft 7 kts 296°
2026-05-05 21:47 48.68854 9.19373 1315 ft 6 kts 337°
2026-05-05 21:47 48.68885 9.19358 1315 ft 0 kts 343°